Location: *
(47.3200°N, 110.6500°E)
Time: 04:37:03
(UTC+00:00)

Daily predictions for brighter satellites

Satellite Brightness Start Highest point End
(mag) Time Altitude Azimuth Time Altitude Azimuth Time Altitude Azimuth
Cosmos 1626 2.8 11:35:53 10° NNW 11:39:33 61° W 11:43:12 10° S
HJ-1C 3.4 11:36:13 10° SSE 11:39:34 86° ENE 11:42:58 10° NNW
Cosmos 1992 Rocket 4.1 11:35:08 10° NNW 11:40:19 62° ENE 11:45:28 10° SE
Cosmos 2263 4.5 11:34:54 10° NNW 11:40:23 51° ENE 11:45:49 10° SE
NOSS 3-4 (A) 4.5 11:35:01 10° NW 11:41:26 41° NE 11:48:27 10° ESE
NOSS 3-4 (C) 4.5 11:35:07 10° NW 11:41:32 41° NE 11:48:32 10° ESE
Cosmos 1818 4.4 11:38:02 10° S 11:42:38 29° ESE 11:47:17 10° NE
Meteor 2-15 4.4 11:37:16 10° S 11:43:16 72° E 11:49:19 10° NNE
FREGAT/IRIS 3.1 11:41:09 10° SE 11:43:39 34° ENE 11:46:11 10° N
Cosmos 1939 Rocket 4.5 11:40:16 10° SSW 11:43:56 38° W 11:47:35 10° NNW
Cosmos 1758 Rocket 4.2 11:42:18 10° N 11:46:20 36° ENE 11:50:19 10° SE
Cosmos 1943 3.7 11:41:18 10° S 11:46:27 38° ESE 11:51:39 10° NE
ADEOS Rocket 3.5 11:39:56 10° N 11:46:28 69° WNW 11:52:18 10° SSW
Cosmos 2084 Rocket 4.3 11:43:42 10° NW 11:48:03 53° SW 11:52:25 10° SSE
NOSS 3-3 (A) 4.0 11:45:30 10° SSW 11:51:12 58° ESE 11:57:38 10° NE
NOSS 3-3 (C) 4.0 11:45:37 10° SSW 11:51:18 58° ESE 11:57:43 10° NE
CZ-2C R/B 2.9 11:49:35 10° SSE 11:54:25 62° ENE 11:59:08 10° N
Cosmos 2228 4.0 11:52:17 10° SE 11:55:52 26° E 11:59:29 10° NNE
